Cienfuegos, Cuba

12:29 AM CST on December 16, 2019 (GMT -0500)
Jaime Gonzalez

Weather History for MUCF - October, 2019

Change the Weather History Date:

Wednesday, October 16, 2019

  Actual Average Record
Temperature  
Mean Temperature 81 °F -  
Max Temperature 89 °F - - ()
Min Temperature 73 °F - - ()
Cooling Degree Days 16    
Growing Degree Days 31 (Base 50)    
Moisture  
Dew Point 76 °F    
Average Humidity 88    
Maximum Humidity 100    
Minimum Humidity 66    
Precipitation  
Precipitation 0.00 in - - ()
Sea Level Pressure  
Sea Level Pressure 29.96 in    
Wind  
Wind Speed 3 mph ()    
Max Wind Speed 10 mph    
Max Gust Speed -    
Visibility 6.2 miles    
Events      
T = Trace of Precipitation, MM = Missing Value Source: Averaged Metar Reports

Daily Weather History Graph

Daily Weather History Graph

Search for Another Location

Airport or City:

Astronomy

Oct. 16, 2019 Rise Set
Actual Time 7:18 AM CDT 6:55 PM CDT
Civil Twilight 6:55 AM CDT 7:18 PM CDT
Nautical Twilight 6:29 AM CDT 7:44 PM CDT
Astronomical Twilight 6:03 AM CDT 8:10 PM CDT
Moon 9:04 PM CDT 9:34 AM CDT
Length of Visible Light 12h 22m
Length of Day
11h 37m
Waning Gibbous, 93% of the Moon is Illuminated
Oct 16
Waning Gibbous
Oct 21
Last Quarter
Oct 27
New
Nov 4
First Quarter
Nov 12
Full

Hourly Weather History & Observations

Time (CDT) Temp. Heat Index Dew Point Humidity Pressure Visibility Wind Dir Wind Speed Gust Speed Precip Events Conditions
12:58 AM 75.2 °F - 75.2 °F 100% 29.98 in - Variable 2.3 mph - N/A   Unknown
1:58 AM 75.2 °F - 75.2 °F 100% 29.98 in - Variable 2.3 mph - N/A   Unknown
2:58 AM 75.2 °F - 75.2 °F 100% 29.98 in - Variable 2.3 mph - N/A   Unknown
3:58 AM 75.2 °F - 75.2 °F 100% 29.95 in - Variable 2.3 mph - N/A   Unknown
4:59 AM 75.2 °F - 73.4 °F 94% 29.95 in - Variable 1.2 mph - N/A   Unknown
5:59 AM 73.4 °F - 73.4 °F 100% 29.95 in - ESE 4.6 mph - N/A   Unknown
6:59 AM 75.2 °F - 73.4 °F 94% 29.98 in - NE 2.3 mph - N/A   Unknown
7:59 AM 75.2 °F - 75.2 °F 100% 29.98 in - East 4.6 mph - N/A   Unknown
8:50 AM 80.6 °F 87.1 °F 77.0 °F 89% 29.98 in 6.2 mi Variable 2.3 mph - N/A   Partly Cloudy
9:54 AM 84.2 °F 96.1 °F 78.8 °F 84% 30.01 in 6.2 mi Variable 3.5 mph - N/A   Partly Cloudy
11:50 AM 87.8 °F 97.6 °F 75.2 °F 66% 30.01 in 6.2 mi SW 5.8 mph - N/A   Partly Cloudy
12:50 PM 87.8 °F 99.7 °F 77.0 °F 70% 29.98 in 6.2 mi WSW 6.9 mph - N/A   Scattered Clouds
1:50 PM 87.8 °F 99.7 °F 77.0 °F 70% 29.95 in 6.2 mi SSW 4.6 mph - N/A   Partly Cloudy
2:50 PM 89.6 °F 102.2 °F 77.0 °F 66% 29.92 in 6.2 mi SW 6.9 mph - N/A   Partly Cloudy
3:50 PM 87.8 °F 99.7 °F 77.0 °F 70% 29.92 in 6.2 mi SW 9.2 mph - N/A   Partly Cloudy
4:59 PM 86.0 °F 96.9 °F 77.0 °F 74% 29.92 in - SW 10.4 mph - N/A   Unknown
5:59 PM 86.0 °F 96.9 °F 77.0 °F 74% 29.92 in - SSW 9.2 mph - N/A   Unknown
6:59 PM 82.4 °F 90.9 °F 77.0 °F 84% 29.92 in - SW 3.5 mph - N/A   Unknown
7:58 PM 78.8 °F - 77.0 °F 94% 29.92 in - East 4.6 mph - N/A   Unknown
8:58 PM 78.8 °F - 77.0 °F 94% 29.95 in - Variable 2.3 mph - N/A   Unknown
9:59 PM 77.0 °F - 77.0 °F 100% 29.98 in - East 3.5 mph - N/A   Unknown
10:59 PM 77.0 °F - 77.0 °F 100% 29.98 in - Variable 2.3 mph - N/A   Unknown
11:59 PM 77.0 °F - 77.0 °F 100% 29.98 in - NNE 4.6 mph - N/A   Unknown